Wind_Speed
5 5 5 6 6 6 4 2 5 8 7 8 8 7 7 7 7 8 8 9 9 9 8 8 8 8 8 8 8 8 8 8 7 6 6 6 5 5 5 5 5 5 5 5 5 5 5 5 5
4 4 4 5 6 4 3 3 7 8 9 9 9 9 9 8 9 9 10 10 10 9 9 9 9 9 9 9 9 8 9 9 8 7 7 7 7 6 7 6 6 6 6 6 6 6 6 6 5
3 3 4 5 2 2 3 5 8 9 9 9 10 10 10 10 10 11 11 11 10 10 10 10 10 9 9 9 9 9 9 10 9 8 8 8 8 8 8 8 7 7 7 7 7 7 7 6 6
3 3 3 2 2 3 5 7 9 9 11 11 11 12 12 12 12 12 12 12 12 11 10 11 11 10 10 10 10 10 10 9 9 9 9 9 9 9 9 8 8 8 8 8 8 8 7 7 7
3 2 1 1 4 6 8 9 10 9 11 12 13 13 13 13 14 13 13 12 12 12 11 11 11 11 11 11 10 10 11 11 10 10 9 9 9 9 9 9 9 9 9 8 8 9 9 9 9
3 2 3 5 6 9 11 11 11 10 10 12 14 14 14 14 14 14 13 13 13 12 12 12 11 12 12 12 12 12 12 12 11 10 10 10 9 9 9 9 9 9 9 9 9 9 9 10 10
5 5 5 6 9 10 13 13 13 12 12 12 14 15 15 15 14 13 13 13 13 13 13 13 13 13 13 13 13 12 12 12 12 11 10 10 11 11 10 10 10 10 10 10 10 9 10 10 10
5 5 5 6 9 11 13 13 13 13 12 12 13 15 15 15 14 13 13 13 14 13 13 13 13 14 14 13 13 13 12 12 12 12 11 12 12 12 11 11 11 11 11 11 10 10 10 11 11
5 7 7 7 9 11 13 13 12 14 13 13 14 16 15 14 14 13 14 14 15 15 15 14 15 15 15 14 13 13 12 12 13 13 13 13 13 13 13 13 13 12 12 12 12 11 12 12 12
8 10 10 11 12 12 12 13 13 14 15 16 16 17 15 14 14 14 14 15 16 16 16 16 16 16 14 13 13 12 12 13 13 14 14 14 14 14 14 14 13 13 14 14 14 14 14 14 14
12 12 12 12 14 14 14 14 13 15 16 17 17 16 15 15 15 16 16 16 16 17 17 17 17 17 16 15 14 13 13 13 14 15 15 15 15 14 14 14 14 14 14 15 15 15 15 15 15
13 13 13 13 14 15 15 14 14 15 17 16 17 16 16 16 17 17 17 17 17 18 18 18 18 18 17 16 15 15 15 15 15 16 16 16 15 14 15 15 15 15 15 15 15 15 16 16 15
12 13 15 14 13 14 15 14 15 15 17 16 17 17 17 18 18 18 18 18 18 18 19 19 18 18 17 17 16 16 16 16 16 16 16 16 15 15 16 16 16 16 16 16 16 16 16 16 16
12 13 12 12 13 13 15 15 15 15 17 17 18 18 18 18 18 18 18 19 19 19 19 20 19 19 18 17 18 18 17 17 17 17 17 16 16 16 16 16 16 16 16 16 16 16 16 17 17
12 13 12 13 14 15 16 15 15 16 17 18 19 18 18 19 18 18 19 20 19 19 20 20 19 19 18 17 18 18 19 18 18 18 17 17 17 17 16 16 17 17 17 16 16 16 17 17 17
11 13 14 15 16 17 17 17 16 17 17 19 19 18 17 18 18 18 19 19 19 18 19 19 19 18 18 17 17 19 19 19 19 19 18 18 19 18 17 17 17 17 17 18 18 18 18 17 18
12 14 14 14 15 17 18 18 18 18 19 20 20 18 18 19 19 19 19 19 19 18 19 19 18 19 18 18 18 18 19 19 19 18 19 19 19 19 18 18 18 18 19 19 19 19 19 19 19
14 15 15 15 15 17 18 19 20 19 20 21 20 19 19 20 20 20 19 19 19 18 19 19 19 19 19 18 18 19 20 20 20 20 19 19 19 19 19 19 19 19 19 20 20 21 21 21 21
14 14 16 17 16 17 18 19 20 20 20 21 21 20 20 21 21 20 19 19 19 19 19 20 20 20 19 18 19 20 20 20 20 20 19 19 19 20 21 21 21 21 20 20 21 22 22 22 23
14 16 17 17 17 18 18 18 19 21 21 20 21 22 22 21 21 20 19 19 19 19 20 20 21 21 20 19 20 20 20 20 20 20 20 20 21 22 23 23 23 23 22 22 22 22 22 23 24
16 16 18 19 18 18 18 18 18 21 21 19 20 21 21 20 20 19 19 19 20 20 21 21 21 21 20 20 21 21 21 21 21 20 21 22 22 23 23 24 24 24 23 22 22 22 22 22 23
18 17 18 19 18 19 20 20 19 21 22 20 20 21 21 20 20 19 19 20 21 21 21 20 21 22 21 21 22 22 22 22 22 22 23 23 23 24 24 25 24 24 23 23 23 22 23 23 23
18 17 18 17 18 20 21 21 18 20 21 21 22 22 21 21 21 21 21 20 21 21 21 21 22 22 21 22 23 23 23 22 23 23 23 23 23 24 25 25 24 24 24 24 24 23 23 24 24
18 17 18 17 19 22 20 20 20 19 19 21 22 23 21 21 21 22 22 22 21 22 22 22 22 22 22 22 23 24 23 23 23 23 23 23 24 24 25 25 24 24 24 24 25 25 25 26 26
18 18 18 18 18 20 19 19 20 20 20 21 21 22 22 22 22 22 23 23 22 22 23 23 23 23 23 23 23 23 23 22 22 22 22 23 24 25 25 25 25 25 24 24 25 26 27 27 27
17 17 18 18 18 18 18 20 21 21 20 20 20 20 21 22 22 23 23 23 23 23 24 23 23 23 24 23 23 23 22 22 22 23 24 24 24 25 25 25 25 25 25 25 25 26 27 27 28
18 18 18 19 19 20 19 20 21 21 20 20 21 22 23 22 22 23 23 24 23 24 24 23 23 23 24 23 23 22 22 23 23 24 24 24 24 25 25 24 23 24 25 25 25 26 28 28 28
19 18 18 18 19 19 19 19 20 22 23 23 24 25 26 24 23 23 23 24 23 23 24 23 23 24 23 23 23 22 23 24 24 24 24 24 24 24 24 24 25 25 25 26 26 27 27 27 27
19 20 19 19 19 19 20 20 20 22 23 25 26 27 25 23 23 24 24 23 23 23 23 24 24 23 23 22 22 22 23 23 24 24 24 25 25 24 24 25 25 25 26 26 26 26 26 26 27
21 20 19 21 21 20 21 23 21 23 25 25 27 27 26 25 24 24 24 23 23 23 23 23 23 22 22 22 22 22 23 24 25 25 25 25 25 25 25 25 25 26 26 26 25 25 26 26 27
Wind_Direction
106 107 107 100 84 68 54 37 293 295 305 314 317 313 312 313 309 309 310 310 315 318 313 316 315 311 307 304 303 301 293 288 281 276 275 272 273 271 269 266 268 263 261 263 260 255 254 248 246
117 123 122 93 68 32 16 278 288 302 303 308 316 317 315 317 313 311 310 311 314 316 314 312 309 308 308 305 301 297 292 289 280 277 276 271 272 278 273 266 265 265 265 263 256 253 255 255 252
130 140 121 92 58 338 309 286 291 302 310 317 316 314 314 318 317 315 314 312 311 313 311 308 305 304 303 301 299 298 295 292 286 280 277 276 276 275 275 272 268 268 271 268 256 253 255 255 254
162 155 127 78 311 318 300 297 304 313 318 319 314 315 317 319 314 314 315 314 312 310 309 306 303 300 300 297 297 296 295 289 283 279 280 279 279 279 276 272 270 271 272 265 257 258 258 254 252
181 145 88 319 292 296 290 292 300 306 312 313 312 315 315 319 318 314 312 313 313 311 309 307 302 297 297 295 292 293 294 289 285 280 281 279 277 278 280 273 269 272 272 264 261 262 259 256 251
203 215 262 284 285 280 285 290 295 298 304 308 308 311 313 315 317 314 313 315 313 312 312 308 303 300 295 292 291 288 289 289 288 285 280 284 281 280 281 275 267 269 271 270 267 265 263 259 253
197 230 244 259 272 271 274 284 293 299 298 301 306 309 310 312 315 314 311 314 315 313 313 311 305 303 300 293 289 287 285 286 286 285 284 282 282 281 279 274 268 267 268 269 267 265 264 258 256
215 247 251 261 268 273 279 291 294 294 297 297 304 304 306 307 312 311 310 312 313 316 317 315 311 311 306 297 291 289 285 285 286 286 284 284 284 282 278 273 269 269 269 270 270 266 264 260 258
235 259 268 273 268 273 281 291 298 298 304 304 305 306 308 307 309 311 310 311 314 317 317 315 312 311 307 301 294 292 288 286 285 286 285 284 282 281 279 273 268 267 269 270 269 268 269 264 259
261 260 258 272 271 266 273 288 295 300 296 296 302 306 308 307 308 309 309 310 312 314 314 313 314 311 309 305 301 297 291 289 287 287 287 286 283 279 278 273 271 267 268 270 269 268 268 264 259
264 262 259 262 268 270 273 284 294 295 292 292 300 302 301 302 303 305 306 308 310 311 311 311 312 309 307 305 302 299 296 293 290 290 288 287 285 280 277 275 272 271 270 271 272 269 266 263 260
265 268 266 263 267 274 278 285 289 290 288 289 294 295 301 303 302 304 305 305 307 308 309 310 308 307 304 301 299 297 298 297 292 289 287 288 287 281 277 275 274 273 271 271 271 271 267 263 260
262 265 269 271 272 276 279 283 288 288 289 288 294 294 299 299 300 302 302 303 305 306 307 308 307 306 304 299 296 295 296 298 293 291 290 290 290 287 282 277 274 273 270 268 268 270 268 262 260
255 263 272 280 282 286 285 286 293 294 294 292 294 294 296 296 298 299 300 301 302 303 304 304 304 304 301 297 294 292 292 293 292 292 291 291 292 291 283 279 275 272 271 270 267 268 267 264 261
257 267 275 282 286 287 287 287 293 296 295 294 296 296 293 296 299 299 299 301 302 302 303 302 302 302 300 298 294 291 291 291 292 294 293 291 293 291 285 281 277 275 272 271 269 269 268 264 261
269 273 279 287 291 290 290 287 286 293 295 294 295 295 295 298 298 301 303 303 303 301 303 303 300 300 302 298 295 294 292 291 291 293 294 291 290 288 287 284 281 277 274 274 272 268 266 264 262
273 278 282 287 289 288 285 286 288 292 293 295 293 293 294 296 298 301 305 304 303 303 303 304 302 300 301 299 297 296 294 293 293 294 294 293 291 288 287 285 283 279 275 273 271 267 265 264 263
265 268 276 280 280 282 282 283 288 289 292 293 294 294 293 295 298 301 303 305 302 303 303 304 303 301 299 297 297 296 295 293 293 293 293 290 289 289 288 288 284 282 279 276 274 270 266 265 267
263 266 270 273 276 278 280 281 285 287 288 290 293 294 291 293 296 299 301 303 303 302 303 304 305 304 301 300 298 296 294 293 293 292 292 291 292 291 290 289 287 284 282 280 277 272 268 267 269
265 269 272 269 271 276 278 279 284 285 287 289 291 291 292 290 294 299 301 303 303 302 303 304 304 303 302 300 300 298 294 292 291 290 290 292 292 292 291 289 289 285 283 280 276 273 270 269 269
261 265 272 276 276 276 280 281 280 287 293 293 294 290 288 294 296 297 298 299 301 302 301 303 304 303 301 300 301 300 297 293 292 291 290 290 292 293 292 291 291 287 282 279 276 274 270 268 269
265 268 273 278 281 283 280 279 282 289 294 293 293 294 295 298 299 299 299 299 299 300 300 300 302 302 302 301 302 301 300 298 294 291 291 290 291 292 292 291 290 286 281 278 276 273 270 269 269
266 271 273 278 277 277 276 275 279 289 294 296 295 294 296 297 297 299 298 297 297 299 300 300 300 300 301 301 301 301 301 298 295 294 292 292 293 292 290 291 290 288 283 279 277 274 272 270 270
264 270 275 280 278 278 281 277 278 282 289 293 294 295 296 294 295 295 296 297 296 296 297 298 296 296 298 298 299 301 301 300 297 294 292 292 291 291 290 290 289 286 283 278 277 276 273 271 271
264 268 275 278 280 284 288 282 277 285 286 288 292 293 294 293 294 293 294 295 295 296 297 296 297 296 297 298 299 299 299 299 299 298 295 294 293 292 290 288 287 285 281 277 277 276 274 274 272
260 264 268 275 280 285 289 286 285 287 286 289 290 293 295 293 290 291 292 293 294 295 295 295 295 295 298 298 297 297 297 299 299 297 295 295 297 296 293 287 285 284 282 280 280 277 276 276 273
255 254 260 270 278 283 284 284 287 288 289 291 292 297 297 294 293 291 292 293 294 293 294 295 295 294 295 295 294 295 296 297 298 297 296 295 297 297 293 291 290 288 286 284 281 279 278 276 274
257 257 260 262 269 278 283 282 283 290 290 292 295 295 294 295 297 298 297 296 295 293 294 294 294 294 293 293 293 293 296 298 298 298 297 296 296 297 296 292 289 289 288 286 285 283 282 279 277
259 258 259 261 265 270 278 280 286 288 289 291 291 292 293 294 298 299 297 298 298 297 296 297 296 296 294 294 294 293 295 297 298 299 299 297 297 297 297 296 291 290 288 286 285 284 283 280 279
256 255 258 263 265 268 272 280 284 286 288 290 290 292 295 295 295 296 297 299 299 298 297 298 298 297 293 293 293 293 295 296 297 298 298 298 297 296 294 293 291 289 288 288 287 286 286 283 281
Height
5904 5904 5904 5905 5904 5904 5904 5906 5906 5903 5902 5900 5899 5899 5898 5897 5897 5898 5894 5891 5891 5890 5888 5888 5887 5887 5886 5886 5885 5884 5884 5883 5882 5882 5881 5881 5881 5880 5880 5880 5880 5880 5880 5880 5880 5880 5880 5881 5881
5904 5904 5905 5904 5904 5904 5905 5906 5905 5903 5902 5900 5899 5898 5897 5896 5895 5894 5892 5891 5890 5889 5887 5886 5886 5886 5885 5884 5883 5883 5882 5881 5881 5880 5880 5880 5879 5879 5879 5879 5879 5879 5879 5879 5879 5879 5879 5880 5880
5903 5904 5905 5904 5905 5906 5906 5904 5904 5902 5901 5900 5898 5897 5896 5895 5893 5892 5891 5890 5889 5888 5887 5886 5885 5884 5883 5882 5882 5881 5880 5880 5879 5879 5879 5878 5878 5877 5877 5877 5877 5877 5877 5877 5878 5878 5878 5879 5878
5903 5904 5904 5904 5905 5906 5906 5905 5902 5902 5900 5899 5898 5896 5895 5894 5892 5891 5889 5888 5887 5886 5885 5884 5883 5882 5881 5881 5880 5880 5879 5878 5878 5877 5877 5877 5876 5876 5875 5876 5876 5876 5876 5876 5876 5876 5877 5877 5877
5902 5903 5904 5904 5906 5906 5906 5904 5901 5902 5901 5899 5897 5895 5893 5893 5891 5889 5888 5886 5885 5884 5883 5883 5882 5881 5880 5879 5878 5878 5877 5876 5876 5875 5875 5875 5874 5873 5873 5873 5874 5874 5874 5874 5875 5875 5875 5876 5876
5901 5902 5903 5904 5905 5906 5904 5902 5901 5901 5900 5898 5896 5894 5892 5891 5890 5888 5886 5885 5883 5882 5881 5880 5880 5879 5878 5877 5876 5876 5875 5875 5874 5873 5873 5873 5872 5872 5872 5871 5872 5872 5872 5872 5873 5873 5873 5873 5874
5901 5901 5901 5903 5904 5904 5902 5901 5900 5899 5898 5897 5894 5893 5891 5889 5888 5886 5885 5883 5882 5880 5879 5878 5878 5877 5876 5875 5874 5873 5873 5873 5872 5871 5871 5871 5870 5870 5870 5869 5869 5870 5870 5870 5870 5871 5871 5871 5872
5899 5900 5900 5901 5902 5902 5900 5899 5898 5897 5896 5895 5893 5891 5889 5888 5886 5885 5883 5882 5880 5879 5877 5877 5876 5875 5874 5873 5872 5871 5871 5870 5870 5869 5869 5868 5868 5868 5867 5867 5867 5867 5867 5867 5868 5868 5868 5869 5870
5898 5900 5899 5899 5900 5901 5898 5897 5896 5894 5894 5892 5891 5889 5888 5886 5884 5883 5882 5880 5878 5877 5875 5875 5874 5872 5870 5869 5868 5868 5868 5868 5867 5867 5866 5866 5866 5865 5865 5864 5864 5864 5864 5865 5865 5865 5866 5866 5867
5897 5898 5898 5898 5897 5897 5896 5895 5894 5893 5892 5890 5888 5887 5885 5884 5882 5881 5879 5878 5877 5875 5873 5872 5871 5870 5868 5867 5866 5865 5865 5865 5865 5864 5864 5863 5863 5863 5862 5862 5861 5861 5861 5862 5862 5862 5862 5863 5864
5895 5895 5895 5895 5895 5893 5893 5893 5892 5890 5889 5887 5886 5885 5882 5881 5880 5879 5877 5876 5874 5873 5871 5870 5868 5867 5866 5865 5864 5863 5863 5862 5862 5862 5861 5861 5860 5859 5859 5859 5858 5858 5858 5859 5859 5859 5859 5860 5861
5893 5893 5892 5892 5892 5891 5891 5890 5889 5889 5886 5885 5883 5881 5879 5879 5877 5876 5875 5873 5872 5870 5869 5867 5866 5864 5863 5862 5862 5861 5860 5860 5859 5858 5858 5857 5857 5856 5856 5855 5855 5855 5855 5855 5856 5856 5856 5857 5858
5890 5890 5890 5889 5889 5889 5888 5887 5886 5886 5884 5882 5881 5878 5876 5876 5874 5873 5872 5870 5869 5867 5866 5864 5863 5862 5860 5859 5858 5858 5857 5856 5856 5855 5854 5854 5853 5853 5852 5852 5852 5852 5852 5852 5852 5852 5853 5854 5854
5887 5887 5887 5887 5887 5886 5885 5884 5883 5883 5881 5879 5878 5876 5874 5873 5872 5870 5869 5867 5866 5864 5863 5861 5860 5859 5857 5856 5855 5854 5854 5853 5853 5852 5851 5850 5849 5849 5848 5848 5848 5848 5847 5847 5847 5848 5849 5850 5851
5883 5883 5884 5884 5884 5883 5882 5881 5881 5880 5878 5876 5875 5873 5871 5870 5868 5867 5866 5864 5862 5861 5860 5858 5857 5855 5854 5853 5852 5851 5851 5850 5849 5848 5848 5847 5846 5845 5844 5844 5844 5844 5844 5843 5844 5845 5845 5846 5847
5880 5881 5881 5882 5882 5881 5881 5879 5877 5877 5875 5873 5871 5870 5868 5867 5865 5864 5862 5860 5859 5858 5857 5855 5853 5852 5851 5850 5849 5848 5847 5846 5846 5845 5844 5843 5842 5841 5841 5840 5840 5840 5840 5840 5840 5841 5841 5842 5843
5878 5879 5880 5881 5880 5879 5877 5876 5875 5874 5872 5870 5868 5866 5865 5864 5862 5860 5859 5857 5856 5855 5853 5852 5850 5849 5847 5847 5846 5845 5844 5843 5842 5841 5840 5839 5838 5837 5836 5836 5836 5836 5836 5836 5836 5837 5837 5838 5838
5877 5878 5878 5878 5878 5876 5874 5873 5872 5870 5868 5866 5864 5862 5862 5860 5859 5857 5856 5854 5852 5851 5850 5849 5847 5846 5844 5843 5842 5841 5840 5839 5838 5837 5836 5835 5834 5833 5832 5832 5832 5831 5831 5831 5831 5831 5832 5833 5833
5873 5874 5874 5875 5874 5873 5871 5870 5869 5866 5865 5862 5860 5859 5858 5857 5855 5853 5852 5851 5849 5848 5847 5846 5844 5842 5841 5839 5838 5837 5836 5834 5833 5832 5831 5830 5829 5828 5828 5827 5827 5826 5826 5826 5826 5826 5827 5827 5828
5869 5870 5870 5870 5869 5869 5867 5866 5865 5862 5860 5858 5857 5855 5854 5853 5851 5850 5848 5847 5846 5845 5844 5842 5841 5839 5837 5836 5834 5833 5831 5829 5828 5827 5827 5826 5825 5824 5823 5822 5821 5821 5820 5820 5820 5820 5821 5822 5822
5865 5867 5867 5866 5866 5865 5863 5862 5861 5858 5856 5855 5853 5851 5851 5849 5848 5847 5845 5844 5842 5841 5840 5839 5837 5835 5833 5832 5830 5828 5826 5825 5824 5823 5822 5821 5820 5818 5817 5816 5815 5815 5814 5814 5814 5814 5815 5816 5816
5862 5863 5863 5862 5861 5860 5860 5857 5857 5855 5853 5851 5850 5848 5847 5846 5844 5843 5842 5840 5839 5838 5836 5835 5833 5831 5829 5828 5826 5824 5822 5821 5820 5818 5817 5816 5814 5813 5811 5810 5809 5809 5808 5808 5808 5809 5809 5810 5810
5859 5859 5858 5857 5857 5855 5854 5852 5852 5852 5849 5848 5846 5845 5843 5842 5841 5839 5838 5836 5835 5833 5832 5830 5829 5827 5825 5823 5821 5819 5818 5816 5814 5813 5811 5810 5809 5807 5806 5805 5804 5803 5803 5802 5802 5803 5803 5803 5804
5854 5855 5854 5853 5852 5851 5851 5849 5847 5847 5846 5845 5844 5841 5839 5838 5837 5835 5833 5832 5830 5829 5827 5826 5824 5822 5821 5819 5817 5815 5813 5811 5809 5808 5806 5805 5804 5802 5801 5800 5799 5798 5797 5797 5796 5796 5797 5797 5797
5851 5851 5850 5849 5848 5847 5846 5845 5844 5843 5843 5842 5840 5838 5836 5834 5833 5831 5829 5828 5826 5824 5823 5821 5819 5818 5816 5814 5812 5810 5808 5806 5805 5803 5802 5800 5799 5797 5796 5794 5793 5792 5791 5790 5790 5790 5790 5790 5790
5846 5847 5847 5846 5845 5845 5843 5842 5840 5839 5838 5836 5835 5833 5831 5829 5828 5826 5824 5823 5821 5819 5818 5816 5814 5813 5811 5809 5807 5805 5803 5802 5800 5798 5796 5795 5793 5791 5790 5788 5787 5786 5785 5784 5783 5783 5783 5782 5782
5841 5842 5844 5843 5841 5841 5839 5838 5836 5834 5833 5832 5831 5828 5825 5824 5822 5821 5819 5818 5816 5814 5812 5811 5809 5807 5805 5804 5802 5800 5799 5797 5795 5793 5791 5790 5788 5786 5784 5782 5781 5780 5779 5778 5777 5776 5775 5775 5774
5837 5838 5839 5838 5837 5836 5836 5834 5832 5830 5829 5828 5826 5824 5821 5820 5818 5816 5814 5813 5811 5809 5807 5805 5804 5801 5799 5798 5796 5795 5794 5792 5789 5788 5786 5784 5782 5780 5778 5776 5775 5773 5772 5771 5770 5769 5767 5767 5766
5833 5833 5833 5833 5833 5832 5831 5831 5828 5826 5826 5824 5822 5819 5817 5815 5814 5811 5809 5807 5806 5804 5802 5800 5798 5796 5794 5792 5791 5790 5788 5786 5784 5782 5780 5778 5776 5774 5772 5770 5768 5767 5766 5764 5763 5761 5760 5759 5758
5828 5828 5829 5828 5827 5826 5826 5826 5823 5822 5821 5820 5817 5814 5812 5810 5808 5806 5804 5802 5801 5799 5796 5794 5792 5790 5788 5787 5786 5784 5782 5781 5779 5777 5774 5772 5770 5768 5766 5764 5762 5760 5759 5757 5756 5754 5753 5752 5751